Location: Newark
(43.0000°N, 1.6781°W)
Time: 00:30:32
(UTC+00:00)

deb Explorer IX - Pass Details

Date: 23 April 2021
Orbit: 541 x 1098 km, 38.8° (Epoch: 12 May)

Event Time Altitude Azimuth Distance (km) Brightness Sun altitude
Rises 08:13:24 0° 263° (W) 2,747 ? 31.9°
Reaches altitude 10° 08:15:36 10° 258° (WSW) 1,894 ? 32.3°
Maximum altitude 08:19:48 50° 183° (S) 801 ? 33.0°
Drops below altitude 10° 08:24:34 10° 108° (ESE) 2,155 ? 33.9°
Sets 08:27:13 0° 104° (ESE) 3,170 ? 34.3°
